Home > Weather > Gaggenau > Past weeks

Flag for Germany Past Weather in Gaggenau, Baden-Württemberg, Germany — Yesterday and Last 2 Weeks

Now
72 °F

Passing clouds.


Feels Like: 75 °F
Forecast: 62 / 79 °F
Wind: 5 mph from Northwest

Location: Karlsruhe - Baden Wurttemberg

Current Time: Jul 28, 2016 at 12:30:06 PM

Latest Report: Jul 28, 2016 at 11:50 AM


Visibility: N/A

Pressure: 30.07 "Hg

Humidity: 69%

Dew Point: 61 °F

Location of GaggenauLocation

Past Weather in Gaggenau — Graph

°F

Gaggenau Temperature Yesterday

Maximum temperature yesterday: 79 °F (at 2:50 PM)
Minimum temperature yesterday: 64 °F (at 4:50 AM)
Average temperature yesterday: 73 °F

High & Low Weather Summary for the Past Weeks

 TemperatureHumidityPressure
High93 °F (Jul 20, 3:50 PM)100% (Jul 14, 11:20 PM)30.33 "Hg (Jul 14, 11:20 PM)
Low50 °F (Jul 16, 4:50 AM)28% (Jul 20, 6:50 PM)29.89 "Hg (Jul 20, 6:20 PM)
Average71 °F72%30.10 "Hg
* Reported Jul 13 10:20 AM — Jul 28 10:50 AM, Gaggenau, Weather by CustomWeather, © 2016

Note: Actual official high and low records may vary slightly from our data, if they occured in-between our weather recording intervals... More about our weather records

Advertising

Gaggenau Weather History for the Previous 24 Hours

Scroll right to see more
 ConditionsComfort  
Time TempWeatherWind HumidityBarometerVisibility
10:50 AM
Thu, Jul 28
73 °FPassing clouds.5 mph69%30.07 "HgN/A
10:20 AM72 °FPassing clouds.6 mph73%30.07 "HgN/A
9:50 AM70 °FPassing clouds.6 mph73%30.07 "HgN/A
9:20 AM68 °FPassing clouds.7 mph78%30.07 "HgN/A
8:50 AM66 °FSunny.6 mph83%30.07 "Hg10 mi
8:20 AM64 °FSunny.6 mph88%30.04 "Hg10 mi
7:50 AM63 °FSunny.5 mph88%30.04 "Hg10 mi
7:20 AM61 °FSunny.5 mph94%30.04 "Hg10 mi
6:50 AM61 °FPassing clouds.6 mph94%30.04 "HgN/A
6:20 AM63 °FClear.5 mph88%30.04 "Hg10 mi
5:50 AM61 °FClear.1 mph94%30.07 "Hg10 mi
5:20 AM61 °FClear.5 mph94%30.07 "Hg10 mi
4:50 AM63 °FClear.5 mph88%30.07 "Hg10 mi
11:20 PM
Wed, Jul 27
68 °FClear.3 mph69%30.07 "Hg10 mi
10:50 PM68 °FClear.3 mph69%30.07 "Hg10 mi
10:20 PM72 °FClear.2 mph65%30.07 "Hg10 mi
9:50 PM72 °FSunny.3 mph65%30.07 "Hg10 mi
9:20 PM73 °FSunny.3 mph61%30.04 "Hg10 mi
8:50 PM75 °FSunny.2 mph54%30.04 "Hg10 mi
8:20 PM77 °FSunny.3 mph51%30.04 "Hg10 mi
7:50 PM77 °FPassing clouds.5 mph51%30.04 "HgN/A
7:20 PM77 °FSunny.3 mph51%30.01 "Hg10 mi
6:50 PM79 °FPassing clouds.7 mph48%30.04 "HgN/A
6:20 PM79 °FPassing clouds.6 mph51%30.04 "HgN/A
5:50 PM79 °FPassing clouds.6 mph48%30.01 "HgN/A
5:20 PM79 °FPassing clouds.6 mph51%30.04 "HgN/A
4:50 PM79 °FPassing clouds.6 mph48%30.04 "HgN/A
4:20 PM79 °FPassing clouds.6 mph48%30.04 "HgN/A
3:50 PM79 °FPassing clouds.7 mph48%30.04 "HgN/A
3:20 PM79 °FPassing clouds.5 mph48%30.04 "HgN/A
2:50 PM79 °FPassing clouds.6 mph48%30.07 "HgN/A
2:20 PM77 °FPassing clouds.8 mph51%30.07 "HgN/A
1:50 PM77 °FScattered clouds.5 mph57%30.07 "HgN/A
1:20 PM77 °FPassing clouds.7 mph54%30.07 "HgN/A
12:50 PM75 °FPassing clouds.7 mph54%30.07 "HgN/A
12:20 PM75 °FPassing clouds.6 mph61%30.07 "HgN/A
Weather by CustomWeather, © 2016

See weather overviewHow to use our weather pages